Regional Weather Roundup
Issued by NWS

Home | Current Version | Previous Version | Text Only | Print | Product List | Glossary Off
Versions: 1 2 3 4 5 6 7 8 9 10 11 12 13 14 15 16 17 18 19 20 21 22 23 24 25 26 27 28 29 30 31 32 33 34 35 36 37 38 39 40 41 42 43 44 45 46 47 48 49 50

000
ASUS43 KLOT 191421
RWRIL

ILLINOIS REGIONAL WEATHER ROUNDUP
NATIONAL WEATHER SERVICE CHICAGO/ROMEOVILLE IL
900 AM CDT SUN APR 19 2015

NOTE: "FAIR" INDICATES FEW OR NO CLOUDS BELOW 12,000 FEET WITH NO
SIGNIFICANT WEATHER AND/OR OBSTRUCTIONS TO VISIBILITY.

* THESE STATIONS ARE NOT UNDER NWS QUALITY CONTROL. THEY ALSO MAY NOT
  REPORT WEATHER SUCH AS PRECIPITATION OR FOG.

ILZ001-002-007-009-015-016-024-191500-
NORTHWEST ILLINOIS

CITY           SKY/WX    TMP DP  RH WIND       PRES   REMARKS
MOLINE         PTSUNNY   59  44  57 E6        29.74F
STERLING*      MOSUNNY   63  41  45 E18       29.75F
SAVANNA*       PTSUNNY   63  39  41 SE10      29.76F
$$

ILZ003-004-008-010-011-017-018-191500-
NORTH CENTRAL ILLINOIS

CITY           SKY/WX    TMP DP  RH WIND       PRES   REMARKS
ROCKFORD       PTSUNNY   61  37  41 E13       29.81F
FREEPORT*      MOSUNNY   58  37  44 SE17      29.79F
ROCHELLE*      MOSUNNY   60  38  43 SE21      29.78F
DE KALB*       SUNNY     59  38  44 E16       29.80F
PERU*          MOSUNNY   60  40  48 E10G18    29.77F
$$

ILZ005-006-012>014-019>023-191500-
NORTHEAST ILLINOIS

CITY           SKY/WX    TMP DP  RH WIND       PRES   REMARKS
CHICAGO-OHARE  PTSUNNY   59  34  39 E8        29.81F
CHICAGO-MIDWAY PTSUNNY   59  36  42 E12       29.81F
AURORA         MOSUNNY   62  37  39 E16G24    29.79F
LANSING*       PTSUNNY   60  35  39 E10G21    29.81F
JOLIET*        PTSUNNY   63  40  43 SE14      29.78F
WAUKEGAN       MOSUNNY   50  33  52 E9        29.84F
DUPAGE AIRPORT MOSUNNY   61  37  41 E12       29.80F
KANKAKEE*      PTSUNNY   59  41  50 E16G23    29.79F
WHEELING       MOSUNNY   56  33  42 E8        29.83F
MORRIS*        MOSUNNY   60  38  43 E15G22    29.75F
ROMEOVILLE*    MOSUNNY   60  35  39 SE12G17   29.79F
NORTHERLY ISL    N/A     51  37  58 NE7         N/A
$$

LMZ740>746-191500-
SOUTHERN LAKE MICHIGAN

STATION/POSITION SKY/WX   TEMP    WIND        PRES    VSBY  WAVE
                          AIR SEA DIR/SP/G                  HT/PER
                          (F)     (DEG/KT/KT) (MB)    (MI)  (FT/S)
HARRISON CRIB              47      60/  6/  7   N/A
BURNHAM HARBOR             51      30/  5/  7   N/A
CALUMET HARBOR             52      60/  6/  7   N/A
BURNS HARBOR               57     120/ 16/ 25 1010.8F
MICHIGAN CITY              58      90/ 14/ 20   N/A
MICHIGAN CITY 6N           54 44  130/ 14/ 21   N/A           2/ 6
$$

ILZ025>027-034>036-040-047-049-050-058-095>099-191500-
WEST-CENTRAL ILLINOIS

CITY           SKY/WX    TMP DP  RH WIND       PRES   REMARKS
QUINCY         MOSUNNY   63  50  62 E7        29.67F
GALESBURG*     CLOUDY    60  49  66 E7        29.73F
MACOMB*        PTSUNNY   62  50  65 E12       29.73F
JACKSONVILLE*  PTSUNNY   65  51  61 E7        29.68F
PITTSFIELD*    PTSUNNY   65  51  60 E5        29.68F
$$

ILZ028>032-037-038-041>044-048-051>054-059>061-191500-
CENTRAL ILLINOIS

CITY           SKY/WX    TMP DP  RH WIND       PRES   REMARKS
PONTIAC        PTSUNNY   61  44  53 E16       29.76F
BLOOMINGTON    CLOUDY    59  48  66 E14       29.74F
DECATUR        LGT RAIN  59  52  77 E10       29.70F
PEORIA         PTSUNNY   63  48  58 E10       29.72F
LACON*         MOSUNNY   61  43  52 E6        29.74F
LINCOLN*       CLOUDY    63  50  61 E10       29.69F
SPRINGFIELD    CLOUDY    61  51  70 E6        29.70F
TAYLORVILLE    LGT RAIN  59  50  72 E6        29.68F
$$

ILZ033-039-045-046-055>057-062-063-191500-
EAST-CENTRAL ILLINOIS

CITY           SKY/WX    TMP DP  RH WIND       PRES   REMARKS
CHAMPAIGN      CLOUDY    61  48  62 E14       29.72F
DANVILLE*      CLOUDY    57  44  62 E13       29.72F
RANTOUL*       CLOUDY    61  46  57 E16G22    29.73F
MATTOON        LGT RAIN  61  50  67 E10       29.69F
PARIS*         LGT RAIN  60  52  73 E8        29.73F
$$

ILZ079-100>102-191500-
SOUTHWEST ILLINOIS

CITY           SKY/WX    TMP DP  RH WIND       PRES   REMARKS
ALTON          CLOUDY    63  52  67 E7        29.67F
BELLEVILLE     DRIZZLE   61  61 100 E6        29.64F
CAHOKIA*       CLOUDY    64  57  78 E5        29.65F
SPARTA*        LGT RAIN  60  59  96 E5        29.66F
$$

ILZ064>066-069>071-074>076-080>082-084>086-088>090-092>094-191500-
SOUTH-CENTRAL ILLINOIS

CITY           SKY/WX    TMP DP  RH WIND       PRES   REMARKS
CARBONDALE     LGT RAIN  61  59  93 E7        29.63F FOG
CAIRO*         CLOUDY    65  65  99 SE6       29.62F FOG
EFFINGHAM*     RAIN      59  52  77 NE5       29.70F
MARION         LGT RAIN  61  61 100 NE7       29.65F
MT. VERNON     CLOUDY    57  54  88 NE7       29.65F
CENTRALIA*     RAIN      57  55  93 E6        29.66F
SALEM*         RAIN      59  56  89 E7        29.66F
METROPOLIS*    CLOUDY    64  64 100 CALM      29.63F FOG
$$

ILZ067-068-072-073-078-083-087-091-191500-
SOUTHEAST ILLINOIS

CITY           SKY/WX    TMP DP  RH WIND       PRES   REMARKS
LAWRENCEVILLE  RAIN      57  56  96 E9        29.68F FOG
FLORA*         RAIN      57  55  91 E8        29.68F
FAIRFIELD*     RAIN      57  57  97 NE8       29.65F
HARRISBURG*    DRIZZLE   60  60 100 NE5       29.66F
ROBINSON*      LGT RAIN  59  54  84 E8        29.71F
CARMI*         LGT RAIN  59  55  87 NE5       29.66F
$$

ABBREVIATIONS USED IN REMARKS
   TC - TEMPERATURE IN CELSIUS
  WCI - WIND CHILL INDEX
   HX - HEAT INDEX
  VSB - VISIBILITY
$$



USA.gov is the U.S. government's official web portal to all federal, state and local government web resources and services.